Regional Weather Roundup
Issued by NWS Sterling, VA

Home | Current Version | Previous Version | Text Only | Print | Product List | Glossary Off
Versions: 1 2 3 4 5 6 7 8 9 10 11 12 13 14 15 16 17 18 19 20 21 22 23 24 25 26 27

000
ASUS41 KLWX 270411
RWRLWX

REGIONAL WEATHER ROUNDUP
NATIONAL WEATHER SERVICE BALTIMORE MD/WASHINGTON DC
1200 AM EDT MON MAR 27 2017

Note: "FAIR" indicates few or no clouds below 12,000 feet
with no significant weather and/or obstructions to visibility.
 TC=TEMPERATURE CELSIUS

 * =Non NWS site. Station does not report precipitation (e.g. rain,
    snow, etc.), thunder, or fog.

DCZ001-MDZ009-015-VAZ040>042-051-053>054-270500-
WASHINGTON METRO

CITY           SKY/WX    TMP DP  RH WIND       PRES   REMARKS
WASHINGTON NAT DRIZZLE   47  46  97 E10       30.22F FOG
DULLES         DRZL/FOG  46  45  96 E7        30.20F VSB 1
ANDREWS AFB    FOG       45  45 100 E6        30.21S VSB 3/4
FT BELVOIR     CLOUDY    47  45  95 VRB6      30.20F FOG
QUANTICO       CLOUDY    48  48 100 E7        30.22F FOG
COLLEGE PARK*  CLOUDY    45  43  93 E7        30.22F
LEESBURG*      CLOUDY    46  46 100 SE6       30.21F FOG
MANASSAS*      CLOUDY    47  46  97 E5        30.21F FOG

$$

MDZ006>007-011-014-270500-
BALTIMORE METRO

CITY           SKY/WX    TMP DP  RH WIND       PRES   REMARKS
BWI AIRPORT    DRIZZLE   44  44 100 E9        30.23F FOG
MD SCIENCE CTR   N/A     46  42  86 MISG      30.24F
MARTIN STATE   CLOUDY    45  45 100 NE5       30.25F FOG
ANNAPOLIS      CLOUDY    46  45  96 E5        30.23F FOG
FORT MEADE*    CLOUDY    43  43 100 E8        30.24F

$$

MDZ012-015-019>023-270500-
MARYLAND EASTERN SHORE

CITY           SKY/WX    TMP DP  RH WIND       PRES   REMARKS
OCEAN CITY     FOG       46  45  96 NE3       30.23F VSB 1/4
SALISBURY      FOG       47  47 100 E7        30.21F VSB 1/2
BAY BRIDGE AP* CLOUDY    45  45 100 E6        30.23F FOG
CAMBRIDGE*     FOG       46  45  93 VRB5      30.22F VSB 1/2
EASTON*        FOG       46  45  95 E6        30.26F VSB 1

$$

MDZ017>025-270500-
SOUTHERN MARYLAND

CITY           SKY/WX    TMP DP  RH WIND       PRES   REMARKS
PATUXENT RIVER FOG       47  47 100 E6        30.21F VSB 1/2
ST INIGOES     FOG       48  48 100 NE6       30.20F VSB 1/4
LEONARDTOWN*   CLOUDY    45  45 100 CALM      30.23S VSB 1/4

$$

MDZ003>005-270500-
NORTH CENTRAL MARYLAND

CITY           SKY/WX    TMP DP  RH WIND       PRES   REMARKS
FREDERICK*     CLOUDY    46  46 100 E3        30.23F
HAGERSTOWN APT LGT RAIN  46  45  96 CALM      30.18F FOG
WESTMINSTER*   DRIZZLE   45  45 100 SE6       30.20S

$$

MDZ501>502-270500-
WESTERN MARYLAND

CITY           SKY/WX    TMP DP  RH WIND       PRES   REMARKS
OAKLAND*       FOG       41  41 100 SE16      30.07R VSB 1/4
CUMBERLAND*      N/A     46  46 100 MISG        N/A

$$

VAZ025>031-270500-
SHENANDOAH VALLEY

CITY           SKY/WX    TMP DP  RH WIND       PRES   REMARKS
WINCHESTER*    RAIN      45  43  93 SE10      30.17F
FRONT ROYAL*   CLOUDY    48  46  93 CALM      30.14F
LURAY*         LGT RAIN  52  52 100 CALM      30.13F
NEW MARKET*    CLOUDY    47  46  95 E3        30.14F
STAUNTON*      CLOUDY    52  49  90 SW5       30.16S
WAYNESBORO*    CLOUDY    48  48 100 SE7       30.15S

$$

WVZ021-048>050-054>055-270500-
EASTERN WEST VIRGINIA PANHANDLE

CITY           SKY/WX    TMP DP  RH WIND       PRES   REMARKS
MARTINSBURG    LGT RAIN  46  44  93 SE3       30.17F FOG
PETERSBURG*    LGT RAIN  49  47  93 N3        30.13F

$$

VAZ036>039-050-270500-
CENTRAL FOOTHILLS

CITY           SKY/WX    TMP DP  RH WIND       PRES   REMARKS
CHARLOTTESVILL CLOUDY    50  49  96 NE7       30.17F FOG
CULPEPER*      CLOUDY    49  49  99 CALM      30.20F FOG
ORANGE*        CLOUDY    46  46 100 CALM      30.20F FOG
GORDONSVILLE*  CLOUDY    49  49 100 NE6       30.17F FOG
WARRENTON*     CLOUDY    49  46  90 E6        30.19F FOG

$$

VAZ055>057-270500-
NORTH AND CENTRAL PIEDMONT

CITY           SKY/WX    TMP DP  RH WIND       PRES   REMARKS
FREDERICKSBRG* LGT RAIN  49  49 100 NE3       30.19F
STAFFORD*      CLOUDY    47  47 100 E3        30.24F FOG

$$

NCZ024-NYZ072-PAZ021-071-VAZ022-071-270500-
OTHER REGIONAL OBSERVATIONS

CITY           SKY/WX    TMP DP  RH WIND       PRES   REMARKS
NEW YORK CITY  CLOUDY    39  38  96 NE5       30.34F FOG
PHILADELPHIA   CLOUDY    41  40  96 E8        30.28F FOG
PITTSBURGH     CLOUDY    54  53  97 SE9       29.97F
ROANOKE        CLOUDY    57  57 100 SE9       30.15F
RICHMOND       MOCLDY    54  51  90 NE5       30.18S
RALEIGH        CLOUDY    66  53  63 S8        30.15F

$$

ANZ530>537-270500-
MARINE OBSERVATIONS

STATION/POSITION TIME  TEMP    WIND        PRES
                       AIR SEA DIR/SP/G
                 (UTC) (F)     (DEG/KT/KT) (MB)
THOMAS PT LIGHT  0400   44 45   80/  6/  7   N/A
BALT KEY BRIDGE  0342   44      80/ 10/ 11 1024.0F
COVE POINT       0342   45     100/  5/  7 1023.8F
LEWISETTA        0348   48 51  100/  8/  9 1022.7F
SOLOMONS ISLAND  0342   46 47   80/  5/  6   N/A
PINEY POINT      0348          120/ 10/ 10   N/A

$$





USA.gov is the U.S. government's official web portal to all federal, state and local government web resources and services.